User: anonymous   Login
Location: Boiro
(42.6475°N, 8.8834°W)
Time: 06:57:39
(UTC+01:00)
Language:

PSAT 2 - Orbit

View from above orbital plane
View from above orbital plane
View from above satellite
View from above satellite

Ground track
Ground track

The orbit data is extracted from the following two-line orbital elements,

1 44354U 19036R   22024.47712094  .00029117  00000-0  33999-3 0  9999
2 44354  28.5271  83.6964 0288614 168.2464 192.5044 15.23408956142592
Epoch (UTC): 24 January 2022 11:27:03
Eccentricity: 0.0288614
inclination: 28.5271°
perigee height: 297 km
apogee height: 694 km
right ascension of ascending node: 83.6964°
argument of perigee: 168.2464°
revolutions per day: 15.23408956
mean anomaly at epoch: 192.5044°
orbit number at epoch: 14259

The dashed part of the orbit path shows where the satellite is in the earth's shadow,  

DLR